CW1923 Weather Reports


Display with metric or nautical units.
time (UTC)temp
F
wind
direction
speed
MPH
gust
MPH
rain 1hr
in
rain 24hr
in
rain mn
in
humidity
%
barometer
mb
20260503011056 58 191 0.0 0.0 0.00 0.12 0.00 96 1012.2
20260503010034 58 191 0.0 0.0 0.00 0.12 0.00 96 1012.3
20260503005531 58 191 0.0 0.0 0.00 0.12 0.00 96 1012.3
20260503005030 58 191 0.0 0.0 0.00 0.12 0.00 96 1012.2
20260503004531 58 191 0.0 0.0 0.00 0.12 0.00 96 1012.3
20260503004032 58 191 0.0 0.0 0.00 0.12 0.00 96 1012.4
20260503003528 58 191 0.0 0.0 0.00 0.12 0.00 96 1012.4
20260503003026 58 191 0.0 0.0 0.00 0.12 0.00 96 1012.5
20260503002007 58 191 0.0 0.0 0.00 0.12 0.00 96 1012.7
20260503001004 58 191 0.0 4.0 0.00 0.12 0.00 95 1012.8
20260503000502 58 191 0.0 4.0 0.00 0.12 0.00 95 1012.8
20260503000003 58 191 0.0 4.0 0.00 0.12 0.00 95 1012.9
20260502235502 58 191 0.0 0.0 0.00 0.12 0.00 95 1012.9
20260502235003 58 191 0.0 0.0 0.00 0.12 0.00 95 1013.1
20260502234504 58 191 0.0 0.0 0.00 0.12 0.00 95 1013.2
20260502234003 58 191 0.0 0.0 0.00 0.12 0.00 95 1013.2
20260502233503 58 191 0.0 0.0 0.00 0.12 0.00 95 1013.2
20260502233004 59 191 0.0 4.0 0.00 0.12 0.00 95 1013.2
20260502232503 59 191 0.0 4.0 0.00 0.12 0.00 95 1013.3
20260502232002 59 192 0.0 4.0 0.00 0.12 0.00 95 1013.4
20260502231452 59 192 0.0 4.0 0.00 0.12 0.00 95 1013.3
20260502230945 59 192 0.0 0.0 0.00 0.12 0.00 94 1013.4
20260502225940 59 192 0.0 0.0 0.00 0.12 0.00 95 1013.5
20260502225437 59 192 0.0 0.0 0.00 0.12 0.00 95 1013.5
20260502224934 59 192 0.0 0.0 0.00 0.12 0.00 95 1013.6
20260502224432 59 192 0.0 4.0 0.00 0.12 0.00 94 1013.7
20260502223932 59 192 2.0 7.0 0.00 0.12 0.00 94 1013.7
20260502223429 59 192 2.0 7.0 0.01 0.12 0.00 94 1013.4
20260502222430 59 122 0.0 0.0 0.01 0.12 0.00 94 1013.2
20260502221932 59 122 0.0 0.0 0.01 0.12 0.00 94 1013.1
20260502221428 59 122 0.0 0.0 0.01 0.12 0.00 94 1013.1
20260502220928 59 117 0.0 0.0 0.01 0.12 0.00 93 1013.1
20260502220427 59 116 0.0 2.0 0.01 0.12 0.00 94 1013.1
20260502215923 60 111 0.0 4.0 0.01 0.12 0.12 93 1013.1
20260502215422 60 111 0.0 5.0 0.01 0.12 0.12 93 1013.2
20260502214918 60 111 0.0 5.0 0.01 0.12 0.12 93 1013.2
20260502214418 60 111 2.0 7.0 0.01 0.12 0.12 93 1013.2
20260502213920 60 111 2.0 7.0 0.01 0.12 0.12 92 1013.3
20260502212908 60 122 2.0 4.0 0.00 0.11 0.11 92 1013.2
20260502212409 60 122 2.0 4.0 0.06 0.11 0.11 92 1013.1
20260502211907 60 117 0.0 4.0 0.09 0.11 0.11 91 1013.2
20260502211406 60 117 2.0 5.0 0.09 0.11 0.11 91 1013.1
20260502210903 60 117 2.0 5.0 0.09 0.11 0.11 91 1013.1
20260502210403 61 118 0.0 5.0 0.09 0.11 0.11 90 1013.2
20260502205902 61 218 0.0 0.0 0.09 0.11 0.11 90 1013.4
20260502205354 61 218 0.0 0.0 0.11 0.11 0.11 89 1013.3
20260502204347 62 217 0.0 4.0 0.11 0.11 0.11 87 1013.7
20260502203840 62 216 2.0 5.0 0.11 0.11 0.11 87 1013.6
20260502203341 63 224 2.0 5.0 0.11 0.11 0.11 86 1014.0
20260502202843 63 268 2.0 7.0 0.10 0.10 0.10 85 1014.2
20260502202337 64 272 2.0 7.0 0.04 0.04 0.04 83 1014.4
20260502201336 65 48 2.0 5.0 0.02 0.02 0.02 80 1013.9
20260502200832 65 49 4.0 7.0 0.02 0.02 0.02 79 1013.8
20260502195833 68 41 5.0 18.0 0.02 0.02 0.01 72 1014.1
20260502195333 69 342 5.0 20.0 0.00 0.00 0.00 68 1013.9
20260502194832 70 6 2.0 20.0 0.00 0.00 0.00 70 1013.5
20260502194331 71 292 0.0 0.0 0.00 0.00 0.00 69 1013.1
20260502193832 71 290 0.0 0.0 0.00 0.00 0.00 69 1013.1
20260502193331 71 290 0.0 0.0 0.00 0.00 0.00 69 1013.0
20260502192830 71 290 0.0 0.0 0.00 0.00 0.00 68 1013.1
20260502192329 72 290 0.0 0.0 0.00 0.00 0.00 67 1013.1
20260502191833 72 290 0.0 0.0 0.00 0.00 0.00 67 1013.1
20260502191332 72 290 0.0 0.0 0.00 0.00 0.00 66 1013.2
20260502190833 72 290 0.0 0.0 0.00 0.00 0.00 66 1013.1
20260502190330 72 290 0.0 0.0 0.00 0.00 0.00 65 1013.1
20260502185833 73 290 0.0 0.0 0.00 0.00 0.00 65 1013.1
20260502185329 73 290 0.0 0.0 0.00 0.00 0.00 64 1013.1
20260502184831 73 290 0.0 0.0 0.00 0.00 0.00 63 1013.2
20260502183330 74 290 0.0 0.0 0.00 0.00 0.00 62 1013.2
20260502182832 74 290 0.0 0.0 0.00 0.00 0.00 61 1013.2
20260502182324 74 290 0.0 0.0 0.00 0.00 0.00 61 1013.3
20260502181823 75 290 0.0 0.0 0.00 0.00 0.00 60 1013.3
20260502180311 75 290 0.0 0.0 0.00 0.00 0.00 56 1013.2
20260502170305 78 254 2.0 5.0 0.00 0.00 0.00 52 1013.3
20260502164254 77 193 4.0 9.0 0.00 0.00 0.00 53 1013.8
20260502163753 77 201 2.0 7.0 0.00 0.00 0.00 54 1013.9
20260502162746 77 187 2.0 9.0 0.00 0.00 0.00 54 1014.0
20260502162247 77 193 2.0 7.0 0.00 0.00 0.00 53 1014.0
20260502161747 77 193 2.0 9.0 0.00 0.00 0.00 53 1014.1
20260502160745 77 161 2.0 7.0 0.00 0.00 0.00 53 1014.2
20260502160242 77 160 4.0 11.0 0.00 0.00 0.00 52 1014.3
20260502152234 77 166 4.0 14.0 0.00 0.00 0.00 54 1014.6
20260502151732 77 311 4.0 14.0 0.00 0.00 0.00 55 1014.7
20260502151230 76 342 4.0 14.0 0.00 0.00 0.00 55 1014.8
20260502150231 77 180 4.0 9.0 0.00 0.00 0.00 54 1015.0
20260502130706 77 214 2.0 9.0 0.00 0.00 0.00 57 1016.6
20260502130202 76 257 4.0 11.0 0.00 0.00 0.00 58 1016.6
20260502123656 75 290 4.0 11.0 0.00 0.00 0.00 60 1016.9
20260502123157 75 145 4.0 11.0 0.00 0.00 0.00 59 1017.1
20260502122655 74 311 4.0 12.0 0.00 0.00 0.00 62 1017.1
20260502122153 74 276 4.0 12.0 0.00 0.00 0.00 61 1017.3
20260502121653 74 305 4.0 7.0 0.00 0.00 0.00 61 1017.3
20260502121151 74 171 2.0 7.0 0.00 0.00 0.00 61 1017.4
20260502120655 74 35 2.0 7.0 0.00 0.00 0.00 63 1017.4
20260502120149 74 308 2.0 11.0 0.00 0.00 0.00 63 1017.5
20260502115645 73 309 4.0 11.0 0.00 0.00 0.00 63 1017.7
20260502115146 74 303 4.0 12.0 0.00 0.00 0.00 62 1017.7
20260502114645 74 187 4.0 12.0 0.00 0.00 0.00 61 1017.7
20260502114145 75 282 4.0 14.0 0.00 0.00 0.00 61 1017.7
20260502113646 74 317 4.0 14.0 0.00 0.00 0.00 61 1017.8
20260502113145 75 222 4.0 14.0 0.00 0.00 0.00 61 1017.8
20260502112645 74 280 4.0 14.0 0.00 0.00 0.00 61 1017.9
20260502111643 73 174 5.0 16.0 0.00 0.00 0.00 64 1018.0
20260502111142 73 192 4.0 16.0 0.00 0.00 0.00 63 1018.0
20260502110643 74 223 2.0 7.0 0.00 0.00 0.00 62 1018.1
20260502110139 74 269 2.0 7.0 0.00 0.00 0.00 63 1018.0
20260502105638 73 273 4.0 11.0 0.00 0.00 0.00 63 1018.1
20260502105141 74 280 4.0 11.0 0.00 0.00 0.00 62 1018.1
20260502104638 74 264 2.0 5.0 0.00 0.00 0.00 63 1018.0
20260502104137 73 266 2.0 5.0 0.00 0.00 0.00 64 1018.1
20260502103639 73 275 2.0 11.0 0.00 0.00 0.00 63 1018.1
20260502103139 73 284 4.0 11.0 0.00 0.00 0.00 64 1018.2
20260502101637 73 293 2.0 7.0 0.00 0.00 0.00 63 1018.2
20260502101135 72 253 2.0 7.0 0.00 0.00 0.00 64 1018.3
20260502100130 71 206 4.0 12.0 0.00 0.00 0.00 65 1018.4
20260502090631 71 298 2.0 11.0 0.00 0.00 0.00 66 1018.6
20260502090118 71 172 2.0 7.0 0.00 0.00 0.00 68 1018.7
20260502080104 67 235 2.0 7.0 0.00 0.00 0.00 70 1018.9
20260502071045 64 188 2.0 7.0 0.00 0.00 0.00 69 1019.2
20260502070541 64 188 4.0 7.0 0.00 0.00 0.00 69 1019.2
20260502064532 62 197 0.0 7.0 0.00 0.00 0.00 69 1019.3
20260502064031 62 195 0.0 7.0 0.00 0.00 0.00 69 1019.4
20260502063029 61 195 0.0 0.0 0.00 0.00 0.00 70 1019.3
20260502061531 58 196 0.0 0.0 0.00 0.00 0.00 72 1019.2
20260502061032 57 196 0.0 0.0 0.00 0.00 0.00 72 1019.1
20260502060531 56 196 0.0 0.0 0.00 0.00 0.00 72 1019.2
20260502060033 56 196 0.0 0.0 0.00 0.00 0.00 71 1019.1
20260502055029 56 196 0.0 0.0 0.00 0.00 0.00 71 1019.1
20260502054529 56 196 0.0 0.0 0.00 0.00 0.00 71 1019.1
20260502054030 56 196 0.0 0.0 0.00 0.00 0.00 70 1019.1
20260502053532 56 196 0.0 0.0 0.00 0.00 0.00 70 1019.1
20260502053029 56 196 0.0 0.0 0.00 0.00 0.00 70 1019.0
20260502052030 56 196 0.0 0.0 0.00 0.00 0.00 69 1019.0
20260502051534 56 196 0.0 0.0 0.00 0.00 0.00 69 1019.0
20260502050531 56 196 0.0 0.0 0.00 0.00 0.00 69 1018.9
20260502050031 56 196 0.0 0.0 0.00 0.00 0.00 69 1019.0
20260502045530 56 196 0.0 0.0 0.00 0.00 0.00 69 1018.9
20260502045015 56 196 0.0 0.0 0.00 0.00 0.00 68 1018.9
20260502044514 56 196 0.0 0.0 0.00 0.00 0.00 68 1018.8
20260502044008 56 196 0.0 0.0 0.00 0.00 0.00 67 1018.7
20260502043503 56 196 0.0 0.0 0.00 0.00 0.00 67 1018.6
20260502043002 56 197 0.0 0.0 0.00 0.00 0.00 67 1018.6
20260502042503 56 197 0.0 0.0 0.00 0.00 0.00 67 1018.7
20260502042002 56 197 0.0 0.0 0.00 0.00 0.00 67 1018.8
20260502041502 56 197 0.0 0.0 0.00 0.00 0.00 67 1019.0
20260502041003 56 197 0.0 0.0 0.00 0.00 0.00 67 1018.8
20260502040503 56 197 0.0 0.0 0.00 0.00 0.00 68 1018.9
20260502034502 54 197 0.0 5.0 0.00 0.00 0.00 72 1019.0
20260502034001 54 197 0.0 5.0 0.00 0.00 0.00 73 1018.9
20260502033503 53 197 0.0 5.0 0.00 0.00 0.00 74 1018.9
20260502032502 53 196 0.0 2.0 0.00 0.00 0.00 75 1018.9
20260502031950 53 196 0.0 2.0 0.00 0.00 0.00 77 1019.0
20260502031448 52 196 0.0 2.0 0.00 0.00 0.00 77 1019.0
20260502030936 52 196 0.0 2.0 0.00 0.00 0.00 77 1018.9
20260502030431 52 196 0.0 2.0 0.00 0.00 0.00 77 1018.7
20260502025932 52 196 0.0 2.0 0.00 0.00 0.00 78 1018.8
20260502024934 52 196 0.0 2.0 0.00 0.00 0.00 78 1018.8
20260502024428 52 196 0.0 2.0 0.00 0.00 0.00 78 1018.9
20260502023929 51 196 0.0 2.0 0.00 0.00 0.00 78 1019.0
20260502022918 51 196 0.0 2.0 0.00 0.00 0.00 78 1018.9
20260502022414 51 196 0.0 0.0 0.00 0.00 0.00 77 1019.0
20260502021408 51 196 0.0 2.0 0.00 0.00 0.00 77 1019.1
20260502020906 51 196 0.0 0.0 0.00 0.00 0.00 77 1019.1
20260502015906 51 196 0.0 0.0 0.00 0.00 0.00 77 1019.2
20260502015402 51 196 0.0 0.0 0.00 0.00 0.00 75 1019.2
20260502014349 51 196 0.0 0.0 0.00 0.00 0.00 75 1019.2
20260502013345 51 196 0.0 2.0 0.00 0.00 0.00 77 1019.3
20260502012834 51 196 0.0 2.0 0.00 0.00 0.00 75 1019.4
20260502012331 51 196 0.0 2.0 0.00 0.00 0.00 75 1019.3